This is the latest recevied weather packets stored in our database for station/object DM4WH-13. If no packets are shown the sender has not sent any weather packets the latest 10 day(s).
| Time | Temp. | Humidity | Pressure | Rain* | Wind** | Luminosity | Snow |
|---|---|---|---|---|---|---|---|
| 1777497922 | 1.11° C | 64% | 1032.6 hPa | 0 mm | 0 m/s | - | - |
| 1777497609 | 2.22° C | 61% | 1032.6 hPa | 0 mm | 0 m/s | - | - |
| 1777497322 | 2.22° C | 58% | 1032.6 hPa | 0 mm | 0 m/s | - | - |
| 1777497009 | 2.22° C | 59% | 1032.5 hPa | 0 mm | 0 m/s | - | - |
| 1777496722 | 2.22° C | 55% | 1032.5 hPa | 0 mm | 0 m/s | - | - |
| 1777496409 | 1.11° C | 62% | 1032.4 hPa | 0 mm | 0 m/s | - | - |
| 1777496134 | 2.22° C | 62% | 1032.4 hPa | 0 mm | 0 m/s | - | - |
| 1777495822 | 2.22° C | 62% | 1032.4 hPa | 0 mm | 0 m/s | - | - |
| 1777495509 | 2.22° C | 58% | 1032.3 hPa | 0 mm | 0.45 m/s, 36° | - | - |
| 1777495222 | 2.22° C | 59% | 1032.3 hPa | 0 mm | 0 m/s | - | - |
| 1777494909 | 2.22° C | 58% | 1032.4 hPa | 0 mm | 0 m/s | - | - |
| 1777494622 | 2.78° C | 58% | 1032.4 hPa | 0 mm | 0 m/s | - | - |
| 1777494310 | 2.78° C | 56% | 1032.3 hPa | 0 mm | 0 m/s | - | - |
| 1777494022 | 2.78° C | 51% | 1032.2 hPa | 0 mm | 0 m/s | - | - |
| 1777493709 | 2.78° C | 52% | 1032.2 hPa | 0 mm | 0 m/s | - | - |
| 1777493422 | 3.89° C | 52% | 1032.2 hPa | 0 mm | 0 m/s | - | - |
| 1777493109 | 3.89° C | 53% | 1032.2 hPa | 0 mm | 0 m/s | - | - |
| 1777492822 | 3.89° C | 50% | 1032.1 hPa | 0 mm | 0 m/s | - | - |
| 1777492509 | 5° C | 48% | 1032.1 hPa | 0 mm | 0 m/s | - | - |
| 1777492222 | 5° C | 47% | 1032 hPa | 0 mm | 0 m/s | - | - |
| 1777491909 | 3.89° C | 48% | 1032.1 hPa | 0 mm | 0.45 m/s, 36° | - | - |
| 1777491622 | 3.89° C | 48% | 1032 hPa | 0 mm | 0 m/s | - | - |
| 1777491309 | 5° C | 47% | 1032 hPa | 0 mm | 0 m/s | - | - |
| 1777491022 | 5° C | 46% | 1032 hPa | 0 mm | 0 m/s | - | - |
| 1777490709 | 6.11° C | 45% | 1032 hPa | 0 mm | 0 m/s | - | - |
* Rain latest hour (hover to see other rain measurements)
** Current wind speed in m/s (hover to see current wind gust speed)